Location: CAO
(44.5093°N, 80.3921°W)
Time: 17:16:56
(UTC-05:00)

X-37B - Visible Passes

Search period start: 26 February 2021 00:00
Search period end: 08 March 2021 00:00
Orbit: 383 x 391 km, 45.0° (Epoch: 10 February)

Date Brightness Start Highest point End Pass type
(mag) Time Alt. Az. Time Alt. Az. Time Alt. Az.
26 Feb 0.6 05:16:57 81° ENE 05:16:57 81° ENE 05:20:00 10° E visible
27 Feb 3.9 04:21:12 13° E 04:21:12 13° E 04:21:37 10° E visible
27 Feb 0.9 05:53:29 25° W 05:55:02 53° SSW 05:58:08 10° ESE visible
28 Feb 1.9 04:57:48 37° ESE 04:57:48 37° ESE 04:59:52 10° ESE visible
28 Feb 2.2 06:30:33 10° W 06:33:02 21° SSW 06:35:32 10° SSE visible
01 Mar 1.4 05:34:28 33° SW 05:34:50 34° SSW 05:37:44 10° SE visible
02 Mar 3.3 04:38:57 15° SE 04:38:57 15° SE 04:39:40 10° ESE visible
02 Mar 2.8 06:11:15 10° WSW 06:12:43 13° SW 06:14:13 10° S visible
03 Mar 2.7 05:15:50 17° S 05:15:50 17° S 05:17:03 10° SSE visible
